Regional Weather Roundup
Issued by NWS Mt. Holly, NJ

Home | Current Version | Previous Version | Text Only | Print | Product List | Glossary On
Versions: 1 2 3 4 5 6 7 8 9 10 11 12 13 14 15 16 17 18 19 20 21 22 23 24 25 26 27 28 29 30 31 32 33 34 35 36 37 38 39 40 41 42 43 44 45 46 47 48 49 50
000
ASUS41 KPHI 221310
RWRPHI

REGIONAL WEATHER ROUNDUP
NATIONAL WEATHER SERVICE MOUNT HOLLY NJ
900 AM EDT TUE JUL 22 2014

NOTE:  "FAIR" INDICATES FEW OR NO CLOUDS BELOW 12,000 FEET WITH NO
SIGNIFICANT WEATHER AND/OR OBSTRUCTIONS TO VISIBILITY.

 * = STATION DOES NOT REPORT PRECIPITATION (E.G. RAIN, SNOW, ETC.)
        OR FOG.

NJZ015>026-221400-
SOUTHERN NEW JERSEY

CITY           SKY/WX    TMP DP  RH WIND       PRES   REMARKS
POMONA         SUNNY     75  66  73 CALM      30.20F
RIO GRANDE*    SUNNY     75  64  69 CALM      30.22S
MILLVILLE      SUNNY     77  63  61 CALM      30.20F
WRIGHTSTOWN    SUNNY     77  63  61 W5        30.18F
MOUNT HOLLY    SUNNY     76  65  68 CALM      30.19F
TRENTON        SUNNY     75  66  73 SW5       30.19F

$$
NJZ001>014-221400-
NORTHERN NEW JERSEY

CITY           SKY/WX    TMP DP  RH WIND       PRES   REMARKS
SUSSEX         SUNNY     74  67  78 SW3       30.18F
ANDOVER*         N/A     73  66  78 SW5       30.19F
MORRISTOWN     SUNNY     75  68  78 CALM      30.19S
NEWARK         MOSUNNY   77  66  68 SW3       30.18S
TETERBORO      SUNNY     78  64  61 SE6       30.16F
CALDWELL       SUNNY     74  65  73 CALM      30.18F
SOMERVILLE     SUNNY     74  65  73 CALM      30.17S
ALLAIRE*       SUNNY     75  63  64 SW6       30.20S
TOMS RIVER*    SUNNY     79  63  57 W3        30.20F

$$
PAZ043-044-047-054-055-060>062-066>071-221400-
EASTERN PENNSYLVANIA

CITY           SKY/WX    TMP DP  RH WIND       PRES   REMARKS
PHILADELPHIA   MOSUNNY   76  66  71 SW6       30.20S
NORTH PHILA    SUNNY     79  66  64 S6        30.21F
BLUE BELL      SUNNY     77  70  78 SW3       30.19F
DOYLESTOWN     SUNNY     74  67  78 SW5       30.19F
QUAKERTOWN*    SUNNY     73  66  78 S5        30.21F
POTTSTOWN      SUNNY     72  67  84 CALM      30.21F
LANCASTER      PTSUNNY   75  69  81 W6        30.20S
COATESVILLE    CLOUDY    68  68 100 CALM      30.22F FOG
READING        CLOUDY    74  66  76 CALM      30.19S
ALLENTOWN      SUNNY     74  65  73 CALM      30.19F
MOUNT POCONO   SUNNY     71  64  78 W9        30.23F
HAZLETON       SUNNY     72  66  83 MISG      30.26S
WILKES BARRE   SUNNY     74  64  71 SW3       30.20S

$$
DEZALL-MDZ008-012-015-019-020-221400-
DELAWARE AND EASTERN MARYLAND

CITY           SKY/WX    TMP DP  RH WIND       PRES   REMARKS
WILMINGTON     MOSUNNY   76  70  82 W5        30.21S
DOVER          SUNNY     77  63  61 CALM      30.19S
GEORGETOWN     SUNNY     75  68  78 SE3       30.21S
EASTON         SUNNY     77  77 100 CALM      30.24S
PATUXENT       CLOUDY    77  69  76 CALM      30.20R
OCEAN CITY     SUNNY     74  69  85 E6        30.21R
WALLOPS ISLAND CLOUDY    76  71  85 E7        30.21R
CAMBRIDGE      MOSUNNY   77  68  73 CALM      30.20S

$$
PAZ001-021-NYZ056-072-MDZ011-DCZ001-221400-
OTHER NEARBY LOCATIONS

CITY           SKY/WX    TMP DP  RH WIND       PRES   REMARKS
HARRISBURG     CLOUDY    75  68  78 S5        30.19S
STATE COLLEGE  CLOUDY    72  68  88 CALM      30.21S FOG
WILLIAMSPORT   CLOUDY    71  66  84 CALM      30.17S
BINGHAMTON     MOSUNNY   71  66  84 W8        30.19F
NEW YORK CITY  SUNNY     76  64  66 CALM      30.20F
BALTIMORE      PTSUNNY   75  70  84 VRB3      30.20S
WASHINGTON DC  PTSUNNY   77  69  76 S10       30.20S

$$


USA.gov is the U.S. government's official web portal to all federal, state and local government web resources and services.